Wetbulb
71.55 74.13 74.92 75.25 76.25 76.53 76.53 76.67 76.63 76.40 76.55 76.28 76.19 75.75 75.79 76.30 76.22 76.35 76.48 76.58 76.39 76.59 76.60 76.25 76.03 76.34 76.08 75.84 76.22 76.73 76.37 76.65 76.48 76.32 76.39 76.46 75.89 75.48 75.04 75.06 75.65 75.36 75.95
72.72 74.10 75.57 75.85 76.63 76.50 76.71 76.83 76.57 76.14 76.12 76.16 75.41 75.57 76.14 76.42 76.63 76.36 76.63 76.54 76.15 76.29 76.31 76.37 76.35 76.02 76.25 76.19 76.33 76.32 76.23 76.29 76.76 75.76 75.90 76.04 75.53 75.11 74.92 74.68 74.35 74.47 75.07
72.92 74.92 75.84 76.59 76.47 76.49 76.53 76.53 76.61 76.33 75.87 75.27 75.66 76.46 76.52 76.32 76.19 76.21 76.36 76.30 76.14 76.22 76.43 76.55 76.46 76.03 76.18 76.37 76.01 76.01 76.34 76.26 76.15 76.35 75.81 76.08 76.06 75.93 76.02 76.05 75.60 75.59 74.76
73.54 75.27 75.30 76.97 76.64 76.50 76.62 76.38 76.49 76.13 75.33 75.53 75.50 76.38 76.07 76.19 76.04 75.92 76.19 76.11 76.12 76.58 76.50 76.53 76.62 76.41 76.56 76.49 76.61 76.58 76.79 76.51 76.05 75.54 75.13 74.30 74.70 75.99 75.93 75.71 75.53 75.62 75.37
74.44 75.14 75.59 76.33 76.37 76.40 76.25 76.29 76.68 75.58 76.38 76.59 76.53 76.33 76.08 76.22 75.78 76.09 76.33 76.04 76.15 76.05 76.30 76.31 76.78 76.80 76.73 76.94 76.51 76.63 76.51 76.40 75.63 75.27 75.11 76.55 75.85 75.78 76.00 75.96 75.73 75.48 75.55
74.64 75.18 75.90 76.62 76.28 75.80 76.61 76.23 76.10 76.46 76.38 76.41 76.22 75.91 76.05 75.51 75.68 75.98 76.44 76.19 75.98 75.89 75.95 75.74 75.98 76.33 76.31 76.90 76.56 76.35 76.13 75.99 75.59 76.10 76.10 75.94 76.29 75.72 75.53 75.43 75.29 75.22 75.19
74.36 75.67 75.68 76.54 76.50 76.18 76.19 75.94 76.57 76.23 76.46 76.56 76.41 76.66 76.35 76.27 76.58 76.23 76.09 76.40 76.52 76.20 76.39 75.11 75.31 76.84 77.27 76.79 76.50 76.05 75.95 75.51 75.52 75.33 75.49 75.37 75.71 76.22 75.42 74.98 75.25 74.20 74.13
73.47 74.55 75.58 76.21 76.58 75.91 76.42 76.47 76.27 76.24 76.49 75.80 76.04 76.61 76.31 76.33 76.35 76.58 75.87 75.87 76.23 76.26 76.26 76.23 76.59 76.87 77.07 76.47 76.05 75.68 75.22 73.71 73.13 75.35 75.86 75.70 75.59 75.54 74.75 73.77 73.82 74.03 73.55
74.37 73.88 75.09 75.87 76.42 76.30 76.39 75.85 76.38 76.17 76.07 75.87 75.92 76.54 76.06 76.26 76.34 75.73 75.51 75.54 75.56 75.84 75.65 75.65 76.26 76.75 76.38 76.68 75.76 75.68 75.41 74.37 74.02 73.39 73.29 74.07 75.51 74.45 74.84 74.52 73.53 73.37 72.56
74.35 74.59 75.02 75.38 75.99 76.40 76.23 76.23 75.96 75.70 75.89 76.06 76.34 76.52 76.42 76.42 76.18 76.22 76.51 75.95 75.00 75.17 75.37 75.59 75.87 76.14 76.69 76.46 75.57 74.85 74.36 72.22 72.01 72.44 73.47 74.55 75.05 74.43 73.50 72.42 72.28 72.02 72.23
72.34 73.77 74.92 74.77 75.70 76.18 74.65 76.05 75.47 73.82 75.42 76.43 76.84 76.45 76.52 76.45 75.87 75.24 76.07 75.54 75.19 75.33 75.11 75.23 75.48 75.72 75.70 76.03 75.64 74.62 72.56 72.72 72.05 71.84 73.08 73.22 72.91 72.31 72.17 71.87 71.95 72.10 72.59
70.99 72.15 74.43 75.12 74.97 75.17 73.86 75.81 75.34 75.51 76.34 76.24 76.80 76.92 76.70 76.57 76.92 75.76 76.54 76.53 76.16 75.86 75.78 75.44 76.13 75.30 74.27 75.34 76.07 75.40 75.09 74.09 72.68 72.09 72.13 72.84 72.37 72.20 72.23 72.15 72.39 72.85 73.52
71.81 72.12 73.63 74.67 74.87 75.41 73.28 73.54 72.98 75.12 75.98 75.42 76.05 75.82 75.85 75.79 75.94 75.66 75.54 75.54 76.16 74.07 74.10 74.01 74.91 76.00 74.74 75.89 76.69 76.85 75.20 74.28 72.25 72.17 72.28 72.42 72.52 72.80 72.67 72.92 73.02 73.68 74.43
71.80 72.15 73.77 74.35 73.88 72.95 73.16 74.12 74.49 74.32 74.59 73.91 74.38 75.16 75.48 74.70 74.60 74.60 75.06 74.37 75.56 75.18 75.26 75.95 75.39 75.55 75.43 75.24 75.67 76.17 75.16 74.08 72.52 71.47 71.98 72.27 73.20 73.53 73.87 74.29 74.54 74.80 75.07
71.00 72.26 73.19 74.25 74.60 73.83 72.56 73.00 72.12 71.84 73.28 72.89 73.65 74.43 75.06 74.23 74.05 74.78 74.25 74.05 75.10 75.77 75.46 75.99 75.71 75.58 75.87 73.99 74.86 75.08 74.57 73.72 73.03 71.80 72.42 71.73 73.75 73.99 74.62 74.93 75.33 75.82 76.14
71.33 71.96 73.05 73.23 74.49 74.36 73.69 73.42 72.54 72.78 72.74 72.45 73.33 74.19 74.36 74.88 75.31 75.25 74.88 74.95 75.99 76.44 76.67 76.71 77.01 76.32 74.96 73.86 73.31 74.45 74.31 73.72 73.31 72.30 72.88 73.75 72.98 75.02 75.09 74.95 75.61 76.09 76.32
71.78 72.52 72.61 72.56 74.04 74.07 74.01 73.19 72.07 72.09 72.06 72.15 72.77 73.58 74.29 75.37 75.90 75.10 75.38 75.64 75.93 76.30 76.57 76.91 76.72 77.17 74.23 73.78 73.38 73.61 73.63 73.23 72.49 71.91 72.77 72.79 73.15 72.40 72.54 74.21 73.90 74.73 75.35
72.19 72.28 72.75 72.26 73.14 73.28 73.17 73.09 72.07 71.82 72.18 71.96 72.97 73.93 74.12 75.46 75.59 76.04 75.49 76.06 76.01 77.15 76.91 76.88 76.37 75.36 74.41 74.41 73.35 72.94 73.34 73.67 73.60 73.35 73.11 72.71 72.94 72.57 73.86 71.79 72.46 73.71 74.60
72.33 72.89 72.63 73.10 73.08 72.95 72.70 71.87 71.33 71.89 71.94 72.82 72.97 74.28 75.04 76.01 76.26 76.89 75.67 75.76 76.55 76.53 76.62 76.66 75.49 75.64 73.89 73.60 73.36 74.38 74.86 75.12 74.79 73.75 74.52 74.80 74.57 73.49 74.39 75.42 73.25 73.56 74.78
72.32 72.99 73.10 73.05 73.71 73.42 72.68 71.79 72.34 72.18 72.27 72.47 73.47 74.98 75.54 76.80 76.65 76.90 75.70 75.68 76.56 77.07 76.85 75.62 75.10 74.93 75.06 74.38 73.00 74.21 75.20 75.42 75.23 75.42 75.07 75.00 74.85 75.15 75.79 76.15 76.17 76.10 75.16
71.94 72.33 72.80 73.03 73.78 73.17 72.24 71.68 71.60 71.11 72.46 73.19 74.37 75.18 75.62 76.29 75.37 75.07 74.79 75.00 76.53 75.97 76.90 76.92 75.67 74.93 74.45 76.22 74.79 73.93 74.29 74.72 74.58 75.29 75.79 75.46 74.94 75.01 75.73 76.26 76.82 77.14 77.13
71.56 72.14 72.56 73.15 73.73 73.51 73.52 73.32 73.60 73.35 74.37 74.65 74.89 75.79 75.84 75.87 76.21 75.12 74.43 74.56 76.62 76.19 77.23 77.12 76.89 74.70 74.23 75.31 74.41 73.03 70.14 71.86 74.88 74.09 75.57 75.87 75.04 75.39 74.70 75.50 76.61 78.07 78.15
71.10 71.79 72.13 73.21 73.55 73.90 74.45 73.78 73.71 74.21 75.56 75.07 75.93 75.14 75.60 75.95 75.73 75.64 74.60 74.57 76.23 76.20 76.57 77.46 76.90 75.97 73.76 74.43 74.62 73.79 69.79 68.25 72.93 74.66 74.03 75.15 75.47 75.53 75.75 75.52 75.42 77.54 78.70
71.11 72.18 72.45 73.11 73.31 73.91 74.70 74.07 73.83 72.26 71.90 73.88 74.32 77.72 75.33 76.26 76.07 75.34 73.02 75.01 75.14 76.08 77.26 77.34 76.32 76.51 76.47 74.02 74.14 73.70 73.93 73.65 70.87 70.14 73.46 73.49 74.48 73.46 74.30 74.49 74.42 75.45 76.77
71.40 71.67 72.06 73.17 73.14 74.09 74.61 75.16 73.74 73.47 73.18 73.62 74.51 75.15 75.83 76.50 76.51 75.84 75.07 74.07 74.84 74.54 77.56 77.84 74.95 76.45 76.00 75.12 74.97 73.54 73.91 72.95 73.67 70.80 68.77 71.36 74.09 74.12 74.42 74.27 74.68 75.42 75.75
71.26 71.67 71.59 72.38 72.88 74.24 74.45 74.50 74.52 74.07 73.61 73.00 73.40 73.34 73.96 74.94 75.60 76.43 75.93 76.10 75.05 74.24 76.52 77.90 75.17 75.09 76.37 75.51 75.06 74.91 73.35 72.88 71.64 71.40 70.03 71.82 69.93 71.72 74.23 74.74 75.62 76.58 77.00
MSLP
1015.89 1015.92 1016.09 1016.15 1016.13 1016.30 1016.28 1016.33 1016.39 1016.56 1016.64 1016.85 1017.04 1017.13 1017.22 1017.27 1017.52 1017.59 1017.65 1017.61 1017.78 1017.83 1017.84 1017.88 1017.99 1017.90 1018.03 1018.08 1018.06 1018.17 1018.34 1018.36 1018.43 1018.58 1018.62 1018.68 1018.92 1018.98 1019.11 1019.14 1018.95 1018.90 1019.33
1015.52 1015.80 1016.09 1016.29 1016.38 1016.56 1016.47 1016.54 1016.71 1016.86 1017.04 1017.23 1017.25 1017.36 1017.48 1017.69 1017.77 1017.80 1017.92 1017.97 1018.01 1018.01 1018.03 1018.04 1018.20 1018.31 1018.32 1018.38 1018.39 1018.52 1018.67 1018.69 1018.57 1018.71 1018.78 1018.91 1019.22 1019.31 1019.37 1019.50 1019.38 1019.54 1019.69
1015.61 1015.94 1016.19 1016.43 1016.60 1016.59 1016.69 1016.82 1016.98 1017.12 1017.27 1017.49 1017.57 1017.62 1017.84 1018.04 1018.16 1018.18 1018.20 1018.37 1018.34 1018.26 1018.26 1018.48 1018.53 1018.59 1018.73 1018.75 1018.82 1018.76 1018.92 1018.99 1019.01 1019.08 1018.95 1018.68 1019.21 1019.70 1019.77 1019.78 1019.79 1019.92 1020.08
1015.72 1016.07 1016.34 1016.74 1016.71 1016.81 1016.91 1017.07 1017.26 1017.41 1017.62 1017.80 1017.82 1017.96 1018.24 1018.37 1018.45 1018.53 1018.70 1018.76 1018.70 1018.50 1018.73 1018.81 1018.84 1018.83 1018.97 1019.04 1019.22 1019.33 1019.30 1019.36 1019.50 1019.30 1018.92 1018.99 1019.26 1019.98 1019.97 1020.01 1020.08 1020.24 1020.34
1016.12 1016.33 1016.70 1016.95 1017.00 1017.13 1017.25 1017.36 1017.56 1017.77 1017.93 1018.08 1018.13 1018.40 1018.48 1018.74 1018.83 1019.02 1018.92 1019.02 1019.04 1019.11 1019.03 1019.08 1019.15 1019.15 1019.32 1019.33 1019.41 1019.55 1019.68 1019.75 1019.83 1019.47 1019.53 1019.69 1019.51 1020.22 1020.30 1020.19 1020.32 1020.50 1020.49
1016.38 1016.44 1017.04 1017.14 1017.26 1017.27 1017.51 1017.71 1017.86 1018.08 1018.36 1018.48 1018.61 1018.78 1018.80 1018.99 1019.06 1019.11 1019.16 1019.24 1019.50 1019.44 1019.50 1019.52 1019.55 1019.61 1019.57 1019.58 1019.75 1019.95 1020.14 1020.22 1020.03 1019.91 1019.95 1020.25 1020.05 1020.48 1020.48 1020.55 1020.67 1020.76 1020.82
1016.54 1016.68 1017.04 1017.49 1017.66 1017.76 1017.81 1018.01 1018.28 1018.38 1018.50 1018.80 1018.80 1018.93 1019.16 1019.20 1019.31 1019.31 1019.46 1019.55 1019.65 1019.76 1019.76 1019.81 1019.83 1019.71 1019.75 1019.95 1020.18 1020.36 1020.52 1020.58 1020.22 1020.23 1020.24 1020.21 1020.46 1020.77 1020.74 1020.90 1020.94 1021.00 1021.00
1016.81 1016.95 1017.20 1017.77 1017.88 1017.99 1018.13 1018.23 1018.42 1018.64 1018.78 1018.82 1019.28 1019.21 1019.36 1019.42 1019.55 1019.70 1019.76 1019.86 1019.88 1019.99 1020.08 1020.05 1019.94 1019.99 1020.14 1020.33 1020.48 1020.70 1020.77 1020.73 1020.51 1020.60 1020.65 1020.54 1021.14 1021.04 1021.08 1021.16 1021.19 1021.20 1021.23
1017.06 1017.23 1017.39 1017.62 1017.94 1018.26 1018.36 1018.47 1018.68 1018.70 1018.83 1019.10 1019.36 1019.52 1019.63 1019.60 1019.78 1019.94 1020.07 1020.18 1020.18 1020.23 1020.31 1020.38 1020.39 1020.43 1020.49 1020.52 1020.71 1020.86 1020.97 1021.04 1020.76 1020.80 1020.77 1020.78 1021.35 1021.21 1021.30 1021.38 1021.42 1021.37 1021.33
1017.30 1017.55 1017.73 1017.79 1017.93 1018.32 1018.40 1018.65 1018.92 1019.11 1019.02 1019.31 1019.60 1019.64 1019.72 1019.92 1020.02 1020.28 1020.39 1020.42 1020.44 1020.41 1020.47 1020.56 1020.69 1020.74 1020.66 1020.71 1020.83 1020.89 1021.02 1021.10 1020.75 1020.88 1020.95 1021.19 1021.58 1021.56 1021.60 1021.65 1021.57 1021.45 1021.36
1017.74 1017.96 1018.11 1017.98 1018.32 1018.51 1018.68 1018.81 1019.06 1019.23 1019.41 1019.75 1019.84 1020.05 1020.09 1020.12 1020.33 1020.24 1020.64 1020.64 1020.73 1020.67 1020.81 1020.83 1020.79 1020.84 1020.89 1020.86 1020.87 1020.94 1021.05 1020.67 1020.77 1020.93 1021.03 1021.79 1021.86 1021.75 1021.78 1021.69 1021.62 1021.58 1021.48
1017.71 1018.06 1018.19 1018.54 1018.60 1018.64 1018.86 1019.08 1019.29 1019.67 1019.66 1020.03 1020.09 1020.28 1020.40 1020.60 1020.78 1020.63 1020.78 1020.88 1021.15 1020.98 1021.04 1021.02 1020.98 1021.00 1020.84 1020.45 1020.50 1021.00 1020.60 1020.83 1020.91 1021.10 1021.21 1021.94 1021.91 1021.87 1021.82 1021.73 1021.62 1021.60 1021.48
1017.82 1018.14 1018.36 1018.63 1018.89 1018.99 1019.48 1019.61 1019.93 1019.89 1020.08 1020.28 1020.40 1020.53 1020.73 1020.84 1020.90 1020.92 1020.99 1021.00 1020.90 1021.07 1020.74 1020.78 1020.72 1020.64 1020.65 1020.53 1020.55 1020.47 1020.74 1020.98 1020.94 1021.11 1021.54 1021.94 1021.98 1021.87 1021.78 1021.59 1021.56 1021.57 1021.48
1017.78 1018.08 1018.36 1018.54 1019.20 1019.57 1019.75 1019.68 1019.82 1019.97 1020.13 1020.31 1020.62 1020.78 1020.85 1020.81 1020.93 1021.07 1021.02 1021.07 1020.94 1020.92 1020.87 1020.78 1020.57 1020.73 1020.68 1020.73 1020.55 1020.57 1020.70 1020.78 1020.90 1021.13 1021.43 1021.92 1021.88 1021.81 1021.62 1021.58 1021.60 1021.50 1021.47
1017.57 1017.97 1018.34 1018.66 1019.13 1019.56 1019.94 1019.87 1020.22 1020.47 1020.32 1020.57 1020.73 1020.98 1020.95 1020.87 1020.93 1020.92 1021.09 1020.97 1020.94 1020.95 1020.87 1020.77 1020.74 1020.59 1020.53 1020.45 1020.48 1020.61 1020.55 1020.73 1020.94 1021.07 1021.23 1021.75 1021.82 1021.77 1021.75 1021.72 1021.62 1021.42 1021.28
1017.46 1017.92 1018.39 1018.77 1019.11 1019.33 1019.65 1019.95 1020.11 1020.32 1020.50 1020.59 1020.77 1020.91 1021.02 1020.89 1020.99 1020.87 1020.90 1020.84 1020.85 1020.99 1020.96 1020.84 1020.73 1020.56 1020.36 1020.26 1020.44 1020.48 1020.67 1020.84 1021.09 1021.25 1021.15 1021.29 1021.84 1021.86 1021.87 1021.65 1021.44 1021.37 1021.12
1017.36 1017.95 1018.43 1018.74 1019.08 1019.38 1019.61 1019.88 1020.13 1020.38 1020.48 1020.65 1020.82 1021.06 1021.13 1021.06 1020.98 1020.96 1020.87 1020.85 1020.84 1020.94 1020.90 1020.75 1020.64 1020.55 1020.25 1020.22 1020.51 1020.65 1020.80 1021.00 1021.02 1021.28 1021.33 1021.38 1021.36 1021.68 1021.68 1021.51 1021.29 1021.16 1020.83
1017.26 1017.90 1018.42 1018.47 1019.00 1019.41 1019.61 1019.91 1020.22 1020.53 1020.59 1020.64 1020.82 1020.98 1021.12 1021.10 1021.07 1021.06 1020.89 1020.89 1020.96 1020.84 1020.71 1020.53 1020.47 1020.47 1020.54 1020.52 1020.58 1020.63 1020.81 1020.90 1021.04 1021.25 1021.31 1021.35 1021.27 1021.13 1021.19 1021.24 1021.06 1020.83 1020.52
1017.26 1017.82 1018.37 1018.61 1019.04 1019.38 1019.87 1020.07 1020.39 1020.61 1020.62 1020.70 1020.87 1020.91 1021.03 1021.05 1021.10 1021.06 1020.97 1021.03 1021.03 1020.76 1020.63 1020.56 1020.63 1020.66 1020.70 1020.70 1020.61 1020.64 1020.63 1020.64 1020.83 1020.79 1020.97 1020.98 1020.92 1020.88 1020.73 1020.73 1020.89 1020.74 1020.35
1017.21 1017.80 1018.32 1018.64 1019.08 1019.44 1019.85 1020.20 1020.33 1020.40 1020.51 1020.71 1020.80 1020.83 1020.96 1020.95 1021.08 1021.10 1021.02 1021.06 1020.92 1020.62 1020.63 1020.66 1020.80 1020.90 1020.91 1020.82 1020.57 1020.56 1020.71 1020.73 1020.82 1020.76 1020.63 1020.67 1020.70 1020.66 1020.56 1020.63 1020.46 1020.11 1020.18
1017.05 1017.57 1018.22 1018.65 1019.15 1019.48 1019.75 1019.97 1020.13 1020.02 1020.40 1020.50 1020.66 1020.84 1020.95 1020.97 1021.11 1021.15 1021.04 1020.99 1020.97 1020.88 1020.95 1020.96 1020.88 1021.03 1021.00 1021.11 1020.74 1020.61 1020.78 1020.84 1020.82 1020.81 1020.65 1020.55 1020.42 1020.35 1020.41 1020.37 1020.12 1019.82 1019.52
1016.70 1017.32 1018.05 1018.49 1018.96 1019.24 1019.37 1019.53 1019.68 1019.93 1020.28 1020.34 1020.54 1020.81 1020.83 1020.85 1021.03 1021.17 1021.24 1021.00 1021.05 1020.96 1020.99 1021.00 1020.99 1020.87 1021.06 1021.22 1020.74 1020.68 1020.34 1020.53 1020.44 1020.60 1020.60 1020.52 1020.46 1020.41 1020.38 1020.23 1020.05 1019.82 1019.65
1016.34 1017.00 1017.79 1018.37 1018.78 1019.03 1019.20 1019.47 1019.89 1020.08 1020.17 1020.42 1020.56 1020.61 1020.64 1020.91 1021.00 1021.30 1021.29 1021.18 1021.13 1021.09 1020.96 1021.08 1021.05 1020.93 1020.86 1021.18 1021.37 1020.90 1020.50 1020.09 1020.35 1020.41 1020.50 1020.46 1020.52 1020.33 1020.14 1020.15 1019.91 1019.86 1019.78
1015.92 1016.68 1017.56 1018.18 1018.65 1018.94 1019.16 1019.24 1019.49 1019.50 1019.71 1020.07 1020.17 1020.47 1020.44 1020.90 1021.02 1021.25 1021.32 1021.29 1021.31 1021.11 1021.12 1021.10 1020.97 1021.09 1021.05 1020.92 1021.14 1021.28 1021.32 1021.01 1020.31 1019.94 1020.27 1020.28 1020.45 1020.21 1020.18 1020.01 1019.96 1019.91 1019.96
1015.74 1016.36 1017.16 1017.96 1018.49 1018.73 1018.94 1019.03 1019.19 1019.31 1019.61 1020.09 1020.27 1020.42 1020.59 1020.80 1020.88 1021.19 1021.34 1021.30 1021.32 1021.26 1021.22 1021.17 1021.28 1021.26 1021.20 1021.12 1021.10 1021.23 1021.35 1021.20 1021.20 1020.66 1019.95 1020.03 1020.32 1020.33 1020.12 1020.09 1020.05 1019.91 1019.78
1015.52 1016.11 1016.92 1017.59 1018.22 1018.63 1018.85 1019.02 1019.16 1019.26 1019.53 1019.84 1020.08 1020.15 1020.32 1020.57 1020.59 1021.05 1021.07 1021.18 1021.30 1021.33 1021.34 1021.15 1021.40 1021.49 1021.40 1021.38 1021.37 1021.33 1021.06 1020.96 1020.89 1020.82 1020.55 1020.45 1020.51 1020.36 1020.32 1020.10 1019.94 1019.84 1019.68
Wind_Speed
5 5 5 6 9 11 10 11 11 11 12 13 14 14 14 14 13 13 12 13 13 13 13 13 12 13 11 12 12 14 13 14 15 14 15 14 14 14 14 12 9 13 13
10 7 6 9 9 10 10 11 12 12 12 13 13 13 14 14 12 12 14 13 13 12 12 12 13 12 12 11 11 12 12 12 13 15 15 15 14 13 13 12 11 12 12
11 9 7 8 9 10 10 11 12 12 13 13 12 13 14 13 13 13 13 12 12 13 13 14 14 13 13 13 12 14 14 14 14 14 11 10 12 13 13 13 13 11 12
12 9 9 8 10 9 11 10 11 12 13 13 11 12 12 13 12 12 12 12 12 12 15 13 12 12 12 14 15 15 15 15 13 9 9 9 12 13 13 13 12 12 11
10 9 10 10 10 10 10 9 11 12 10 11 11 11 13 13 12 12 13 13 13 13 12 12 13 13 13 14 14 14 14 14 12 10 10 8 9 11 12 12 12 11 12
10 9 11 10 9 6 11 11 12 10 10 10 11 11 12 13 12 13 13 13 13 13 13 14 13 12 14 14 14 13 13 12 10 9 9 9 9 11 12 12 10 11 10
10 8 10 9 9 9 10 12 10 10 9 10 11 10 13 11 13 12 12 12 13 13 14 12 10 12 13 13 12 12 11 10 8 8 8 8 9 10 13 11 10 9 9
9 8 8 8 10 9 9 10 9 8 8 8 10 10 11 12 12 12 13 11 12 12 12 12 13 13 12 13 12 10 10 8 7 7 7 7 9 11 10 9 8 8 7
8 8 7 8 9 8 8 8 8 7 9 10 12 10 12 11 13 13 12 11 11 10 10 11 12 12 9 10 10 10 10 7 6 5 6 5 5 8 9 7 7 6 5
7 7 6 6 7 6 7 8 7 6 9 10 10 10 11 12 12 12 9 10 10 9 9 9 10 10 10 10 9 9 9 6 6 6 5 6 6 6 6 5 4 4 3
6 5 5 7 7 6 5 5 6 3 7 11 12 10 10 7 8 8 10 10 9 9 8 7 8 8 8 7 9 9 6 4 5 4 3 5 4 4 4 2 2 2 3
8 7 5 5 7 6 6 6 6 3 4 6 7 8 6 7 6 7 9 10 8 8 7 6 5 4 3 3 5 6 2 4 3 4 4 1 1 2 1 1 3 4 5
8 6 6 5 5 7 4 3 2 3 3 5 6 5 5 4 4 4 4 3 3 4 2 1 1 0 3 1 1 2 3 3 3 3 5 2 2 2 3 4 5 6 8
10 9 8 7 6 5 4 3 5 3 4 4 4 5 3 3 4 4 3 3 3 2 3 2 2 2 2 1 2 2 3 3 3 2 4 2 4 4 5 6 7 8 10
10 10 9 7 5 5 6 4 4 3 4 5 4 4 3 3 3 3 3 3 2 2 2 2 2 3 3 4 2 3 4 4 4 2 1 3 4 5 6 8 9 10 11
10 10 10 9 7 7 6 6 4 4 4 3 3 3 3 2 1 1 2 2 1 2 2 2 2 3 4 4 5 5 4 4 3 2 1 1 3 7 7 8 10 11 13
10 10 10 10 8 8 7 6 4 4 4 3 3 3 2 0 2 2 1 2 3 3 3 2 1 1 3 4 5 5 4 4 3 2 1 3 2 3 5 7 8 10 13
10 12 11 9 9 9 6 5 4 3 3 4 3 2 2 2 3 1 2 2 2 2 2 2 1 3 3 3 4 3 3 2 1 2 2 1 2 3 3 5 8 10 13
11 12 11 10 11 9 7 4 4 5 4 3 3 3 3 3 3 1 2 2 1 2 2 2 3 2 3 3 3 2 1 1 1 1 1 2 3 4 4 3 9 12 16
11 11 11 9 9 8 7 5 4 5 4 4 3 2 4 2 2 2 2 2 2 2 3 4 4 4 2 2 1 1 0 1 1 1 2 3 3 5 5 6 6 6 10
11 10 11 11 9 8 7 6 5 6 5 4 3 4 4 4 4 3 2 1 1 3 4 3 3 4 3 1 2 2 2 0 1 2 3 2 3 5 6 5 5 5 4
13 12 10 9 11 10 7 5 3 4 3 3 4 4 4 3 2 2 2 2 1 2 3 3 0 3 2 2 1 0 1 3 2 3 2 2 3 3 4 5 7 7 4
14 13 11 10 12 10 8 6 4 5 3 3 3 4 4 5 4 3 2 2 2 1 1 2 1 1 2 2 3 2 2 2 1 1 1 1 2 2 2 4 6 6 6
15 12 11 11 11 10 11 8 9 7 5 4 5 3 4 5 5 4 3 3 2 1 2 1 1 0 2 2 2 3 3 3 2 2 2 3 2 3 4 4 4 5 5
15 14 12 11 11 10 10 9 8 7 5 5 4 5 4 4 5 5 4 4 3 2 2 1 1 1 1 1 2 1 1 2 1 2 2 1 2 1 3 4 3 3 4
13 14 13 13 12 10 9 10 10 9 7 6 6 6 5 5 4 5 4 4 3 3 3 1 2 1 2 3 1 2 2 2 1 2 2 2 3 2 3 2 3 3 4
Wind_Direction
151 146 136 116 95 99 101 98 102 106 107 107 105 103 105 103 104 100 102 99 100 104 99 93 87 91 95 104 101 100 96 98 97 100 97 98 93 94 93 92 108 95 88
138 140 125 111 103 104 99 98 98 107 108 106 107 110 101 93 99 100 95 95 98 101 101 102 87 95 104 104 102 107 104 109 98 105 101 93 94 95 95 94 84 90 88
137 130 130 113 106 103 102 103 108 109 110 110 110 104 99 101 97 101 96 100 110 109 98 86 91 94 94 103 102 99 100 98 95 94 101 91 92 93 96 90 90 94 98
133 135 135 122 116 114 116 114 115 113 116 114 109 100 103 102 99 101 107 110 103 93 98 97 93 85 87 93 93 93 91 91 89 101 89 90 91 86 87 90 86 87 90
129 129 122 122 122 124 119 117 117 117 108 115 114 108 105 101 104 102 102 102 97 101 96 95 92 92 100 96 91 91 90 91 90 90 95 81 92 93 93 87 100 95 64
126 125 124 124 121 106 133 119 119 112 116 109 109 109 107 105 102 99 91 98 97 91 84 81 86 96 99 89 92 93 92 91 98 85 91 95 91 90 86 81 79 80 77
134 130 130 126 123 116 112 125 121 123 118 121 115 110 101 106 96 98 91 88 92 88 85 81 75 93 92 87 92 93 95 89 91 89 94 89 83 93 86 78 74 79 71
137 135 130 127 122 122 122 126 130 123 134 140 121 110 100 98 101 91 96 93 91 89 89 84 77 102 98 91 92 100 96 94 101 94 82 81 71 75 76 77 75 69 62
136 137 143 137 129 125 131 118 132 145 137 111 122 104 101 105 100 91 90 95 98 95 91 85 85 92 105 103 97 103 108 99 99 93 104 92 83 93 80 77 78 72 62
131 126 141 132 119 124 130 133 122 116 123 109 109 113 105 103 93 92 108 98 104 105 94 89 94 95 88 121 119 120 119 128 97 109 95 78 69 74 74 72 70 65 48
149 145 137 133 130 124 108 119 99 137 130 114 98 92 92 83 87 106 81 101 106 104 102 106 106 110 102 102 137 130 150 87 104 101 99 74 56 75 71 70 39 7 339
160 158 143 140 146 134 120 108 116 39 93 95 93 86 87 98 87 75 75 73 82 85 88 81 83 114 181 97 118 152 96 99 104 101 86 53 345 44 18 334 318 328 332
168 156 157 143 130 129 103 122 83 123 107 94 92 91 93 99 95 93 88 92 87 71 77 98 150 317 9 357 111 115 115 123 93 94 94 245 289 301 308 303 318 327 322
165 164 160 157 131 113 120 164 122 150 131 118 101 94 93 115 105 81 72 65 90 77 56 35 23 0 338 294 241 135 104 122 104 123 127 227 261 287 295 314 325 322 323
167 168 163 161 150 144 133 143 127 132 143 121 122 98 91 86 80 78 83 72 55 46 51 41 33 11 44 76 120 164 132 134 117 130 120 207 266 284 308 322 324 322 323
171 169 161 172 163 160 148 146 146 155 142 142 128 113 103 91 82 70 77 70 53 14 357 350 359 18 54 85 94 114 124 118 109 92 87 147 281 306 314 315 320 326 317
175 165 171 170 167 171 163 156 158 163 151 146 136 141 117 50 147 122 77 49 47 29 360 22 26 79 93 94 90 94 109 93 83 72 22 6 18 228 301 303 323 314 301
175 172 174 170 165 169 168 168 162 171 172 167 159 162 151 152 172 132 110 75 32 44 48 41 79 121 101 86 93 92 103 103 76 60 45 324 306 318 243 243 270 271 277
183 174 176 174 171 167 165 159 151 156 173 172 177 176 183 177 143 166 136 82 357 36 64 44 90 101 122 113 109 121 121 78 75 65 333 286 274 270 297 269 266 278 281
185 182 180 183 169 159 148 146 148 159 165 172 175 180 183 177 139 175 140 114 5 34 56 65 84 79 85 127 123 118 235 33 10 356 322 329 322 299 318 319 304 287 277
183 187 190 187 179 172 166 163 160 163 164 167 175 197 192 187 135 149 156 148 31 39 34 61 110 84 88 42 208 155 120 191 231 5 306 296 317 332 339 338 315 318 299
180 184 191 196 182 188 180 166 152 155 167 172 185 191 203 204 217 206 215 166 107 63 55 40 279 115 70 29 333 162 190 169 172 29 11 318 337 344 354 345 348 352 339
188 181 187 188 182 183 174 149 123 132 141 168 179 176 180 182 203 246 235 215 184 146 99 51 46 126 130 75 22 316 197 231 280 151 84 66 338 324 324 335 8 16 33
192 184 185 184 186 191 180 174 176 181 165 174 187 163 170 186 183 203 202 190 229 176 182 94 30 43 212 179 151 66 23 349 284 229 187 220 275 336 342 340 355 6 358
184 186 189 186 187 192 185 193 187 189 176 157 170 171 168 185 194 190 182 196 206 246 229 197 204 150 162 228 243 170 75 46 38 314 310 1 226 314 333 9 15 15 352
186 185 188 192 197 197 204 198 199 193 180 173 177 188 187 191 183 200 205 193 204 228 234 236 36 51 97 109 136 221 214 252 214 247 275 317 326 332 354 29 42 18 14